Location: Jodlow
(50.1500°N, 16.7500°E)
Time: 01:21:32
(UTC+02:00)

O/OREOS (USA 219) - Pass Details

Date: 04 April 2023
Orbit: 621 x 646 km, 72.0° (Epoch: 22 May)

Event Time Altitude Azimuth Distance (km) Brightness Sun altitude
Exits shadow 05:19:33 - 213° (SSW) 2,083 ? -10.8°
Reaches altitude 10° 05:19:41 10° 213° (SSW) 2,030 ? -10.7°
Maximum altitude 05:24:15 73° 298° (WNW) 671 ? -10.1°
Drops below altitude 10° 05:28:49 10° 24° (NNE) 2,029 ? -9.4°
Sets 05:31:05 0° 27° (NNE) 2,938 ? -9.0°
